PEGASUS DEB, 25442

Orbit data source: Space-Track

PEGASUS DEB, 25442 is space debris in LEO originally from a launch on Thu, 19 May 1994 UTC launched from the Air Force Western Test Range (AFWTR). Debris objects in space refer to the collection of defunct objects orbiting the Earth. Examples of debris include non-operational satellites, rocket bodies, and fragments generated from explosions, collisions, or faulty payload assembly.

Loading next visibility...
Identifier
25442, 1994-029ADX
Orbit
LEO
Country
Flag of USUS
Related business
Manufacturer
Unknown
Mission
Spacecraft
Bus & Motor
Unknown
Mass
Unknown
Launch date (UTC)
1994-05-19 (32 years ago)
Launch vehicle
Unknown
Launch site
Air Force Western Test Range (AFWTR)
Object type
Payload
Rocket body
Debris
Shape & HBR
Unknown shape, 0.1 m
Radar Cross Section
Small (<0.1 m²)

Expand to show TLE details & history
Last TLE update: 10 hours ago

TLE from 10 hours ago
0 PEGASUS DEB
1 25442U 94029ADX 26118.96305912  .00006644  00000-0  97231-3 0  9999
2 25442  81.7556   9.9977 0201796  60.7073 301.4128 14.62531385545135
Epoch: 2026-04-28T23:06Z
TLE epoch observation values (Epoch: 2026-04-28T23:06:48.307Z)
Latitude
-0.00006°
Longitude
166.36558°
Altitude
615.825 km
Speed
7.59 km/s
True Right ascension
00h 39m 59s
True Declination
0° 00' 00"
Sunlit
Object was in daylight at epoch
Visualization orbit readout
Latitude
Unknown
Longitude
Unknown
Altitude
Unknown
Speed
Unknown
Apparent Right ascension
Unknown
Apparent Declination
Unknown
Sunlit
N/A
Visualization observer readout
Local Sidereal Time
16:26:15
Azimuth
Unknown
Elevation
Unknown
Doppler factor
Unknown
Orbital elements
Apogee altitude
824.563 km
Perigee altitude
539.618 km
Semi-major axis
7,060.227 km
Eccentricity
0.02018
Inclination
81.7556°
RAAN
9.9977°
Arg. of periapsis
60.7073°
True anomaly
299.41344°
Mean anomaly
301.4128°
Eccentric anomaly
300.41572°
Mean motion
3.6586 °/min
Orbital period
98.4 mins
BSTAR
0.00097231
Loading maneuver chart data...
Computing Atmospheric mass density...
Loading historical data...
Loading historical data...
Loading historical data...
Loading historical data...
Loading historical data...
Loading historical data...
Loading historical data...

Documentation

Showing up to 5 results
|